Simultaneous Nadir Overpasses (SNOs) Predictions

Prediction of SNOs between GOES-15 and METOP-B Satellite Orbit:

Table of predicted SNOs for the next 14.0 days since TLE Epoch: 1/23/2022
Index Date Time (GOES-15) GOES-15 Lat,Lon METOP-B Lat,Lon Distance(km) Time Diff (sec)
1 01/23/2022 06:19:42 0.01,-128.35 -0.78,-131.82 396.11 80
2 01/24/2022 05:56:23 0.01,-128.35 0.37,-126.83 172.91 80
3 01/25/2022 18:17:53 -0.01,-128.36 0.65,-131.39 344.41 80
4 01/26/2022 17:54:32 -0.01,-128.36 -0.44,-126.39 224.06 80
5 01/28/2022 06:16:12 0.01,-128.32 -0.61,-130.98 303.65 80
6 01/29/2022 05:52:52 0.02,-128.31 0.54,-125.99 264.30 80
7 01/30/2022 18:14:23 -0.01,-128.31 0.47,-130.55 254.59 80
8 01/31/2022 17:51:02 -0.02,-128.30 -0.62,-125.55 313.26 80
9 02/02/2022 06:12:41 0.00,-128.25 -0.42,-130.14 214.72 80
10 02/03/2022 05:49:21 -0.02,-128.24 0.68,-125.14 353.69 80
11 02/04/2022 18:08:11 0.02,-128.25 0.33,-129.70 165.16 80
12 02/05/2022 17:50:11 0.02,-128.23 -0.76,-124.70 402.73 80
